GW0353 Weather Reports


time (UTC)temp
F
wind
direction
speed
knots
gust
knots
rain 1hr
in
rain 24hr
in
rain mn
in
humidity
%
barometer
mb
20260902024100 63 150 7.0 17.4 0.00 0.00 0.00 16 1019.3
20260902023558 63 150 8.7 17.4 0.00 0.00 0.00 16 1019.3
20260902023106 63 157 7.8 15.6 0.00 0.00 0.00 16 1019.3
20260902022558 64 131 8.7 15.6 0.00 0.00 0.00 16 1019.0
20260902022101 64 149 3.5 13.9 0.00 0.00 0.00 15 1019.0
20260902021604 64 91 6.1 13.9 0.00 0.00 0.00 16 1019.1
20260902021058 64 124 7.8 13.9 0.00 0.00 0.00 16 1019.1
20260902020558 64 136 4.3 9.6 0.00 0.00 0.00 16 1019.2
20260902020104 64 135 4.3 13.9 0.00 0.00 0.00 15 1019.1
20260902015557 65 164 7.8 13.9 0.00 0.00 0.00 15 1018.9
20260902015057 65 148 6.1 17.4 0.00 0.00 0.00 15 1018.8
20260902014604 66 146 5.2 17.4 0.00 0.00 0.00 14 1018.9
20260902014101 66 69 8.7 17.4 0.00 0.00 0.00 14 1018.9
20260902013558 66 139 5.2 10.4 0.00 0.00 0.00 14 1018.9
20260902013102 67 96 3.5 5.2 0.00 0.00 0.00 15 1018.9
20260902012558 67 162 0.0 11.3 0.00 0.00 0.00 15 1019.0
20260902012057 67 58 4.3 11.3 0.00 0.00 0.00 14 1018.9
20260902011605 68 184 5.2 10.4 0.00 0.00 0.00 13 1019.2
20260902011058 69 199 0.9 6.1 0.00 0.00 0.00 14 1019.0
20260902010558 69 0 2.6 6.1 0.00 0.00 0.00 13 1019.0
20260902010105 69 160 1.7 11.3 0.00 0.00 0.00 13 1019.1
20260902005555 69 259 0.9 11.3 0.00 0.00 0.00 13 1019.2
20260902005057 69 141 3.5 11.3 0.00 0.00 0.00 12 1019.3
20260902004603 69 302 3.5 10.4 0.00 0.00 0.00 13 1019.2
20260902004058 69 160 0.0 14.8 0.00 0.00 0.00 15 1019.4
20260902003600 69 149 5.2 14.8 0.00 0.00 0.00 12 1019.3
20260902003104 69 142 5.2 10.4 0.00 0.00 0.00 13 1019.4
20260902002557 70 131 2.6 7.8 0.00 0.00 0.00 12 1019.3
20260902002058 70 158 0.9 8.7 0.00 0.00 0.00 14 1019.4
20260902001607 70 229 3.5 14.8 0.00 0.00 0.00 13 1019.3
20260902001058 70 219 5.2 14.8 0.00 0.00 0.00 14 1019.3
20260902000558 70 136 5.2 13.0 0.00 0.00 0.00 13 1019.3
20260901235559 71 129 2.6 13.9 0.00 0.00 0.00 13 1019.4
20260901235100 71 158 1.7 11.3 0.00 0.00 0.00 14 1019.7
20260901234616 71 231 3.5 11.3 0.00 0.00 0.00 13 1019.7
20260901234055 71 160 3.5 11.3 0.00 0.00 0.00 13 1019.7
20260901233602 71 163 4.3 10.4 0.00 0.00 0.00 13 1019.7
20260901233108 71 226 2.6 11.3 0.00 0.00 0.00 13 1019.7
20260901232558 71 202 3.5 14.8 0.00 0.00 0.00 13 1019.9
20260901232058 71 63 5.2 14.8 0.00 0.00 0.00 13 1019.7
20260901231605 71 212 4.3 14.8 0.00 0.00 0.00 13 1019.9
20260901231058 72 245 6.1 14.8 0.00 0.00 0.00 12 1019.9
20260901230557 72 256 3.5 13.0 0.00 0.00 0.00 14 1019.8
20260901230105 72 262 7.8 13.0 0.00 0.00 0.00 13 1019.9
20260901225557 72 208 4.3 11.3 0.00 0.00 0.00 12 1019.9
20260901225057 73 223 3.5 9.6 0.00 0.00 0.00 11 1019.9
20260901224605 73 239 3.5 9.6 0.00 0.00 0.00 12 1019.8
20260901224057 73 220 0.9 10.4 0.00 0.00 0.00 14 1019.7
20260901223601 73 162 2.6 10.4 0.00 0.00 0.00 12 1019.8
20260901223105 73 252 4.3 10.4 0.00 0.00 0.00 11 1019.8
20260901222557 73 162 1.7 9.6 0.00 0.00 0.00 14 1019.7
20260901222057 73 217 3.5 12.2 0.00 0.00 0.00 13 1019.8
20260901221608 73 243 2.6 12.2 0.00 0.00 0.00 14 1019.9
20260901221057 74 248 3.5 10.4 0.00 0.00 0.00 14 1019.9
20260901220557 74 207 1.7 10.4 0.00 0.00 0.00 16 1019.8
20260901220118 73 82 2.6 7.8 0.00 0.00 0.00 16 1020.0
20260901215558 73 160 0.9 8.7 0.00 0.00 0.00 16 1019.9
20260901215058 72 0 0.9 15.6 0.00 0.00 0.00 16 1019.9
20260901214606 71 72 3.5 15.6 0.00 0.00 0.00 16 1019.7
20260901214059 71 58 4.3 14.8 0.00 0.00 0.00 18 1019.8
20260901213559 71 70 4.3 10.4 0.00 0.00 0.00 18 1019.9
20260901213112 71 87 5.2 12.2 0.00 0.00 0.00 19 1020.0
20260901212557 70 108 5.2 12.2 0.00 0.00 0.00 19 1020.0
20260901212057 71 59 2.6 9.6 0.00 0.00 0.00 18 1020.1
20260901211604 71 63 1.7 10.4 0.00 0.00 0.00 19 1020.2
20260901211058 70 140 4.3 11.3 0.00 0.00 0.00 19 1020.3
20260901210557 70 53 6.1 11.3 0.00 0.00 0.00 18 1020.4
20260901210104 70 97 2.6 17.4 0.00 0.00 0.00 20 1020.5
20260901205558 69 53 5.2 17.4 0.00 0.00 0.00 20 1020.5
20260901205101 70 53 3.5 12.2 0.00 0.00 0.00 20 1020.4
20260901204605 68 140 6.1 12.2 0.00 0.00 0.00 20 1020.5
20260901204059 68 69 7.0 14.8 0.00 0.00 0.00 21 1020.5
20260901203559 69 252 6.1 14.8 0.00 0.00 0.00 21 1020.6
20260901203111 69 122 6.1 16.5 0.00 0.00 0.00 23 1020.4
20260901202557 68 79 6.1 16.5 0.00 0.00 0.00 23 1020.5
20260901202057 69 47 5.2 11.3 0.00 0.00 0.00 22 1020.6
20260901201605 68 45 6.1 13.9 0.00 0.00 0.00 22 1020.6
20260901201058 68 34 6.1 15.6 0.00 0.00 0.00 24 1020.5
20260901200557 67 37 8.7 15.6 0.00 0.00 0.00 23 1020.5
20260901200106 68 109 6.1 15.6 0.00 0.00 0.00 27 1020.5
20260901195600 68 81 7.8 15.6 0.00 0.00 0.00 29 1020.6
20260901195057 68 165 4.3 14.8 0.00 0.00 0.00 27 1020.5
20260901194607 68 60 6.1 14.8 0.00 0.00 0.00 27 1020.6
20260901194057 68 132 7.0 12.2 0.00 0.00 0.00 27 1020.7
20260901193557 68 64 6.1 12.2 0.00 0.00 0.00 24 1020.7
20260901193116 68 59 5.2 12.2 0.00 0.00 0.00 27 1020.8
20260901192557 68 169 7.0 12.2 0.00 0.00 0.00 26 1020.8
20260901192057 67 50 3.5 12.2 0.00 0.00 0.00 29 1020.8
20260901191606 66 87 5.2 12.2 0.00 0.00 0.00 31 1020.9
20260901191057 66 64 5.2 12.2 0.00 0.00 0.00 29 1021.1
20260901190557 65 144 6.1 14.8 0.00 0.00 0.00 29 1021.0
20260901185558 66 99 6.1 10.4 0.00 0.00 0.00 32 1021.3
20260901185057 65 119 5.2 10.4 0.00 0.00 0.00 31 1021.4
20260901184626 65 111 4.3 9.6 0.00 0.00 0.00 30 1021.4
20260901184058 65 105 6.1 11.3 0.00 0.00 0.00 30 1021.3
20260901183558 64 112 5.2 11.3 0.00 0.00 0.00 30 1021.4
20260901183106 65 77 6.1 9.6 0.00 0.00 0.00 29 1021.5
20260901182557 64 162 4.3 10.4 0.00 0.00 0.00 31 1021.5
20260901182057 64 136 3.5 10.4 0.00 0.00 0.00 32 1021.6
20260901181607 64 165 5.2 11.3 0.00 0.00 0.00 31 1021.7
20260901181058 64 114 6.1 11.3 0.00 0.00 0.00 32 1021.8
20260901180558 64 358 4.3 9.6 0.00 0.00 0.00 32 1021.7
20260901180105 64 138 5.2 9.6 0.00 0.00 0.00 34 1021.7
20260901175557 64 68 4.3 8.7 0.00 0.00 0.00 33 1021.7
20260901175057 65 144 4.3 8.7 0.00 0.00 0.00 32 1021.7
20260901174607 65 104 3.5 8.7 0.00 0.00 0.00 34 1021.6
20260901174057 66 120 0.9 5.2 0.00 0.00 0.00 31 1021.7
20260901173556 66 44 0.9 5.2 0.00 0.00 0.00 33 1021.7
20260901173104 66 55 0.9 3.5 0.00 0.00 0.00 38 1021.8
20260901172557 65 24 0.0 3.5 0.00 0.00 0.00 36 1021.7
20260901172058 65 83 0.9 6.1 0.00 0.00 0.00 34 1021.9
20260901171605 64 39 0.9 6.1 0.00 0.00 0.00 36 1021.8
20260901171057 64 87 1.7 6.1 0.00 0.00 0.00 34 1021.6
20260901170558 64 0 0.9 4.3 0.00 0.00 0.00 36 1021.7
20260901170120 64 51 0.9 3.5 0.00 0.00 0.00 36 1021.7
20260901165557 64 301 1.7 3.5 0.00 0.00 0.00 36 1021.7
20260901165058 63 297 0.9 3.5 0.00 0.00 0.00 35 1021.7
20260901164608 62 0 0.0 3.5 0.00 0.00 0.00 36 1021.8
20260901164057 62 68 1.7 4.3 0.00 0.00 0.00 38 1021.6
20260901163557 62 326 1.7 4.3 0.00 0.00 0.00 40 1021.7
20260901163105 62 46 1.7 3.5 0.00 0.00 0.00 39 1021.7
20260901162556 61 276 0.9 4.3 0.00 0.00 0.00 41 1021.7
20260901162058 61 63 2.6 4.3 0.00 0.00 0.00 41 1021.7
20260901161610 61 63 0.9 4.3 0.00 0.00 0.00 41 1021.7
20260901161058 61 62 0.9 4.3 0.00 0.00 0.00 41 1021.6
20260901160559 60 82 0.9 4.3 0.00 0.00 0.00 43 1021.7
20260901160103 59 54 0.9 4.3 0.00 0.00 0.00 45 1021.6
20260901155557 59 77 2.6 3.5 0.00 0.00 0.00 41 1021.7
20260901155057 60 51 0.9 2.6 0.00 0.00 0.00 42 1021.5
20260901154618 59 46 0.9 1.7 0.00 0.00 0.00 44 1021.5
20260901154057 58 0 0.0 2.6 0.00 0.00 0.00 43 1021.5
20260901153559 57 0 0.9 2.6 0.00 0.00 0.00 45 1021.5
20260901153118 57 136 0.0 1.7 0.00 0.00 0.00 45 1021.6
20260901152556 56 67 0.0 1.7 0.00 0.00 0.00 48 1021.6
20260901152058 56 56 0.0 1.7 0.00 0.00 0.00 48 1021.5
20260901151605 56 60 0.9 2.6 0.00 0.00 0.00 50 1021.5
20260901151058 55 0 0.9 2.6 0.00 0.00 0.00 50 1021.5
20260901150600 54 53 0.9 2.6 0.00 0.00 0.00 50 1021.3
20260901150110 54 53 1.7 2.6 0.00 0.00 0.00 49 1021.7
20260901145557 54 82 0.0 1.7 0.00 0.00 0.00 51 1021.6
20260901145117 53 107 0.9 1.7 0.00 0.00 0.00 49 1021.5
20260901144604 53 0 0.0 2.6 0.00 0.00 0.00 54 1021.5
20260901144057 52 112 0.0 2.6 0.00 0.00 0.00 51 1021.5
20260901143557 52 56 0.0 1.7 0.00 0.00 0.00 50 1021.5
20260901143107 51 0 0.0 1.7 0.00 0.00 0.00 53 1021.4
20260901142557 49 0 0.0 1.7 0.00 0.00 0.00 55 1021.3
20260901142057 48 0 0.0 1.7 0.00 0.00 0.00 56 1021.2
20260901141607 47 0 0.0 1.7 0.00 0.00 0.00 59 1021.2
20260901141059 48 164 0.0 3.5 0.00 0.00 0.00 58 1021.2
20260901140557 48 70 0.9 5.2 0.00 0.00 0.00 56 1021.1
20260901140110 48 96 1.7 5.2 0.00 0.00 0.00 56 1021.0
20260901135557 47 64 4.3 5.2 0.00 0.00 0.00 57 1020.9
20260901135057 44 75 1.7 3.5 0.00 0.00 0.00 64 1020.9
20260901134601 44 0 0.0 1.7 0.00 0.00 0.00 68 1020.8
20260901134057 45 0 0.0 0.9 0.00 0.00 0.00 65 1020.7
20260901133557 46 0 0.0 0.0 0.00 0.00 0.00 65 1020.7
20260901133113 46 0 0.0 0.9 0.00 0.00 0.00 64 1020.6
20260901132559 46 0 0.0 1.7 0.00 0.00 0.00 63 1020.6
20260901132101 47 0 0.0 1.7 0.00 0.00 0.00 61 1020.6
20260901131603 47 143 0.0 1.7 0.00 0.00 0.00 60 1020.5
20260901131101 47 0 0.0 1.7 0.00 0.00 0.00 60 1020.6
20260901130557 48 0 0.0 1.7 0.00 0.00 0.00 59 1020.5
20260901130106 47 0 0.0 1.7 0.00 0.00 0.00 60 1020.4
20260901125557 47 152 0.0 1.7 0.00 0.00 0.00 61 1020.6
20260901125057 47 0 0.0 0.0 0.00 0.00 0.00 63 1020.5
20260901124613 47 167 0.0 0.9 0.00 0.00 0.00 64 1020.4
20260901124056 47 0 0.0 0.9 0.00 0.00 0.00 66 1020.5
20260901123601 47 0 0.0 3.5 0.00 0.00 0.00 69 1020.3
20260901123120 47 0 0.0 3.5 0.00 0.00 0.00 69 1020.4
20260901122557 46 76 0.0 1.7 0.00 0.00 0.00 71 1020.4
20260901122057 46 0 0.0 1.7 0.00 0.00 0.00 73 1020.3
20260901121608 45 0 0.0 1.7 0.00 0.00 0.00 74 1020.2
20260901121100 45 0 0.0 0.9 0.00 0.00 0.00 74 1020.2
20260901120601 45 191 0.0 0.9 0.00 0.00 0.00 74 1020.3
20260901120118 46 0 0.0 0.0 0.00 0.00 0.00 73 1020.4
20260901115559 47 0 0.0 0.9 0.00 0.00 0.00 72 1020.4
20260901115058 47 0 0.0 0.9 0.00 0.00 0.00 73 1020.4
20260901114603 47 0 0.0 1.7 0.00 0.00 0.00 73 1020.5
20260901114059 46 0 0.0 1.7 0.00 0.00 0.00 74 1020.4
20260901113559 47 0 0.0 1.7 0.00 0.00 0.00 72 1020.5
20260901113118 47 0 0.0 0.9 0.00 0.00 0.00 72 1020.4
20260901112600 47 0 0.0 1.7 0.00 0.00 0.00 72 1020.4
20260901112059 47 181 0.0 1.7 0.00 0.00 0.00 72 1020.4
20260901111605 47 0 0.0 0.9 0.00 0.00 0.00 72 1020.4
20260901111059 47 0 0.0 1.7 0.00 0.00 0.00 74 1020.4
20260901110558 47 0 0.0 1.7 0.00 0.00 0.00 74 1020.5
20260901110108 47 0 0.0 1.7 0.00 0.00 0.00 74 1020.4
20260901105559 47 171 0.0 0.9 0.00 0.00 0.00 74 1020.5
20260901105058 47 0 0.0 1.7 0.00 0.00 0.00 76 1020.4
20260901104603 47 0 0.0 1.7 0.00 0.00 0.00 76 1020.2
20260901104059 47 224 0.0 0.9 0.00 0.00 0.00 75 1020.2
20260901103559 48 0 0.0 0.9 0.00 0.00 0.00 74 1020.2
20260901103112 48 0 0.0 0.0 0.00 0.00 0.00 74 1020.2
20260901102600 48 0 0.0 0.9 0.00 0.00 0.00 74 1020.2
20260901102059 48 0 0.0 0.9 0.00 0.00 0.00 75 1020.2
20260901101605 48 173 0.0 0.9 0.00 0.00 0.00 74 1020.2
20260901101059 49 225 0.0 1.7 0.00 0.00 0.00 74 1020.4
20260901100559 48 0 0.0 1.7 0.00 0.00 0.00 75 1020.3
20260901100106 48 0 0.0 0.0 0.00 0.00 0.00 73 1020.3
20260901095558 49 0 0.0 0.0 0.00 0.00 0.00 72 1020.5
20260901095058 49 0 0.0 0.9 0.00 0.00 0.00 76 1020.4
20260901094603 49 0 0.0 0.9 0.00 0.00 0.00 73 1020.3
20260901094059 49 0 0.0 0.9 0.00 0.00 0.00 73 1020.4
20260901093558 49 0 0.0 0.9 0.00 0.00 0.00 71 1020.2
20260901093111 49 0 0.0 0.9 0.00 0.00 0.00 73 1020.2
20260901092559 49 0 0.0 0.9 0.00 0.00 0.00 71 1020.3
20260901092059 49 0 0.0 0.9 0.00 0.00 0.00 72 1020.2
20260901091611 49 0 0.0 1.7 0.00 0.00 0.00 72 1020.4
20260901091058 49 0 0.0 1.7 0.00 0.00 0.00 71 1020.3
20260901090559 50 0 0.0 0.9 0.00 0.00 0.00 72 1020.4
20260901085602 50 0 0.0 0.0 0.00 0.00 0.00 70 1020.6
20260901085059 50 0 0.0 0.0 0.00 0.00 0.00 69 1020.6
20260901084604 50 0 0.0 0.0 0.00 0.00 0.00 69 1020.4
20260901084100 51 0 0.0 0.0 0.00 0.00 0.00 69 1020.5
20260901083559 51 0 0.0 0.9 0.00 0.00 0.00 69 1020.6
20260901083107 50 0 0.0 0.9 0.00 0.00 0.00 68 1020.6
20260901082559 50 0 0.0 1.7 0.00 0.00 0.00 69 1020.7
20260901082059 50 0 0.0 1.7 0.00 0.00 0.00 69 1020.8
20260901081603 51 0 0.0 0.9 0.00 0.00 0.00 69 1021.0
20260901081058 51 0 0.0 0.0 0.00 0.00 0.00 70 1021.0
20260901080559 51 0 0.0 0.0 0.00 0.00 0.00 70 1020.9
20260901080109 51 0 0.0 0.0 0.00 0.00 0.00 70 1020.9
20260901075559 52 0 0.0 0.0 0.00 0.00 0.00 68 1020.9
20260901075059 51 0 0.0 0.9 0.00 0.00 0.00 67 1020.9
20260901074605 51 0 0.0 0.9 0.00 0.00 0.00 65 1021.0
20260901074059 51 0 0.0 0.9 0.00 0.00 0.00 65 1020.9
20260901073559 51 0 0.0 0.0 0.00 0.00 0.00 64 1021.1
20260901073105 52 0 0.0 0.9 0.00 0.00 0.00 64 1020.9
20260901072559 52 0 0.0 0.9 0.00 0.00 0.00 63 1020.9
20260901072102 52 0 0.0 0.9 0.00 0.00 0.00 63 1021.0
20260901071605 52 0 0.0 0.9 0.00 0.00 0.00 63 1020.9
20260901071058 52 0 0.0 1.7 0.00 0.00 0.00 64 1021.1
20260901070558 53 0 0.0 1.7 0.00 0.00 0.00 63 1021.1
20260901070106 52 126 0.0 1.7 0.00 0.00 0.00 63 1021.1
20260901065604 52 0 0.0 1.7 0.00 0.00 0.00 62 1021.1
20260901065100 53 0 0.0 0.9 0.00 0.00 0.00 61 1021.3
20260901064605 53 0 0.0 0.9 0.00 0.00 0.00 61 1021.3
20260901064058 53 0 0.0 0.0 0.00 0.00 0.00 61 1021.3
20260901063559 53 0 0.0 0.0 0.00 0.00 0.00 61 1021.3
20260901063116 53 0 0.0 0.9 0.00 0.00 0.00 60 1021.3
20260901062559 54 0 0.0 0.9 0.00 0.00 0.00 59 1021.2
20260901062059 54 0 0.0 0.9 0.00 0.00 0.00 60 1021.3
20260901061621 55 0 0.0 0.9 0.00 0.00 0.00 58 1021.3
20260901061059 55 0 0.0 4.3 0.00 0.00 0.00 58 1021.4
20260901060559 55 0 0.0 4.3 0.00 0.00 0.00 56 1021.4
20260901060106 55 54 1.7 4.3 0.00 0.00 0.00 56 1021.4
20260901055558 56 68 1.7 3.5 0.00 0.00 0.00 56 1021.5
20260901055058 56 65 1.7 3.5 0.00 0.00 0.00 56 1021.5
20260901054605 56 65 2.6 3.5 0.00 0.00 0.00 56 1021.5
20260901054059 55 66 0.0 2.6 0.00 0.00 0.00 57 1021.5
20260901053559 55 106 0.0 0.0 0.00 0.00 0.00 60 1021.5
20260901053107 55 0 0.0 0.9 0.00 0.00 0.00 60 1021.5
20260901052558 55 0 0.0 1.7 0.00 0.00 0.00 60 1021.6
20260901052058 55 0 0.0 1.7 0.00 0.00 0.00 59 1021.5
20260901051618 56 221 0.0 0.9 0.00 0.00 0.00 58 1021.6
20260901051059 56 0 0.0 1.7 0.00 0.00 0.00 58 1021.6
20260901050600 56 0 0.0 1.7 0.00 0.00 0.00 56 1021.6
20260901050109 57 170 0.0 1.7 0.00 0.00 0.00 56 1021.6
20260901045558 57 0 0.0 3.5 0.00 0.00 0.00 57 1021.5
20260901045058 57 0 0.0 3.5 0.00 0.00 0.00 55 1021.5
20260901044605 58 176 0.9 2.6 0.00 0.00 0.00 54 1021.5
20260901044101 58 186 0.0 3.5 0.00 0.00 0.00 54 1021.5
20260901043559 59 0 0.9 3.5 0.00 0.00 0.00 54 1021.3
20260901043108 59 48 0.9 3.5 0.00 0.00 0.00 53 1021.5
20260901042558 59 0 0.0 2.6 0.00 0.00 0.00 53 1021.4
20260901042058 59 0 0.0 2.6 0.00 0.00 0.00 53 1021.3
20260901041603 59 73 0.0 2.6 0.00 0.00 0.00 53 1021.4
20260901041102 60 106 0.0 6.1 0.00 0.00 0.00 52 1021.4
20260901040558 60 0 1.7 6.1 0.00 0.00 0.00 52 1021.4
20260901040106 60 62 1.7 6.1 0.00 0.00 0.00 53 1021.5
20260901035559 60 0 0.0 6.1 0.00 0.00 0.00 52 1021.4
20260901035059 60 152 2.6 6.1 0.00 0.00 0.00 52 1021.4
20260901034610 60 184 2.6 6.1 0.00 0.00 0.00 51 1021.2
20260901034058 61 183 0.9 4.3 0.00 0.00 0.00 51 1021.1
20260901033601 61 146 2.6 4.3 0.00 0.00 0.00 50 1021.1
20260901033115 61 116 0.0 3.5 0.00 0.00 0.00 50 1021.1
20260901032559 61 145 1.7 4.3 0.00 0.00 0.00 50 1021.0
20260901032059 62 66 1.7 4.3 0.00 0.00 0.00 50 1020.9
20260901031606 62 131 1.7 4.3 0.00 0.00 0.00 50 1020.9
20260901031058 62 149 0.0 5.2 0.00 0.00 0.00 51 1020.8
20260901030558 62 129 2.6 5.2 0.00 0.00 0.00 51 1020.7
20260901030105 63 74 0.0 3.5 0.00 0.00 0.00 52 1020.7
20260901025558 63 0 0.9 2.6 0.00 0.00 0.00 51 1020.7
20260901025059 63 0 0.9 4.3 0.00 0.00 0.00 51 1020.6
20260901024615 63 193 0.0 8.7 0.00 0.00 0.00 52 1020.4